• In Hungary
  • List of Countries
  • For 7 days
  • Water Temperature
  • Satellite Maps
  • Weather Map
  • News
  • Weather Widgets
  • user-avatar
    Login

    Hourly Weather Stanislavivka

    Today, 19 June, Tuesday

    Time Temperature Precipitation Wind Pressure Humidity
    00:00 +21°C° 0 mm 1 mps 732 mmHg 92%
    01:00 +21°C° 0 mm 1 mps 732 mmHg 95%
    02:00 +20°C° 0 mm 1 mps 733 mmHg 100%
    03:00 +20°C° 0 mm 1 mps 733 mmHg 100%
    04:00 +19°C° 0 mm 1 mps 733 mmHg 100%
    05:00 +19°C° 0 mm 1 mps 733 mmHg 100%
    06:00 +19°C° 0 mm 1 mps 733 mmHg 100%
    07:00 +20°C° 0 mm 1 mps 734 mmHg 100%
    08:00 +19°C° 0 mm 2 mps 734 mmHg 100%
    09:00 +20°C° 0 mm 1 mps 734 mmHg 100%
    10:00 +21°C° 0 mm 1 mps 735 mmHg 99%
    11:00 +21°C° 0 mm 2 mps 735 mmHg 98%
    12:00 +23°C° 0 mm 2 mps 735 mmHg 98%
    13:00 +25°C° 0 mm 2 mps 735 mmHg 96%
    14:00 +26°C° 0 mm 2 mps 735 mmHg 93%
    15:00 +26°C° 0 mm 2 mps 734 mmHg 88%
    16:00 +26°C° 0 mm 2 mps 734 mmHg 86%
    17:00 +26°C° 0 mm 2 mps 734 mmHg 87%
    18:00 +26°C° 0 mm 2 mps 734 mmHg 88%
    19:00 +26°C° 0 mm 2 mps 734 mmHg 88%
    20:00 +25°C° 0 mm 1 mps 735 mmHg 92%
    21:00 +24°C° 0 mm 2 mps 735 mmHg 97%
    22:00 +23°C° 0 mm 2 mps 735 mmHg 99%
    23:00 +21°C° 0 mm 2 mps 735 mmHg 100%

    Tomorrow, 20 June, Wednesday

    Time Temperature Precipitation Wind Pressure Humidity
    00:00 +21°C° 0 mm 2 mps 736 mmHg 100%
    01:00 +20°C° 0 mm 2 mps 736 mmHg 100%
    02:00 +20°C° 0 mm 2 mps 736 mmHg 100%
    03:00 +20°C° 0 mm 2 mps 736 mmHg 100%
    04:00 +20°C° 0 mm 2 mps 736 mmHg 100%
    05:00 +19°C° 0 mm 2 mps 736 mmHg 100%
    06:00 +19°C° 0 mm 2 mps 736 mmHg 100%
    07:00 +21°C° 0 mm 1 mps 737 mmHg 100%
    08:00 +21°C° 0 mm 1 mps 737 mmHg 100%
    09:00 +22°C° 0 mm 1 mps 737 mmHg 98%
    10:00 +23°C° 0 mm 1 mps 738 mmHg 95%
    11:00 +24°C° 0 mm 1 mps 738 mmHg 89%
    12:00 +25°C° 0 mm 1 mps 738 mmHg 85%
    13:00 +25°C° 0 mm 1 mps 737 mmHg 83%
    14:00 +26°C° 0 mm 1 mps 737 mmHg 83%
    15:00 +26°C° 0 mm 2 mps 737 mmHg 81%
    16:00 +26°C° 0 mm 1 mps 736 mmHg 80%
    17:00 +26°C° 0 mm 1 mps 736 mmHg 84%
    18:00 +26°C° 0 mm 1 mps 736 mmHg 85%
    19:00 +25°C° 0 mm 1 mps 736 mmHg 89%
    20:00 +25°C° 0 mm 1 mps 736 mmHg 94%
    21:00 +24°C° 0 mm 1 mps 736 mmHg 91%
    22:00 +23°C° 0 mm 1 mps 736 mmHg 91%
    23:00 +23°C° 0 mm 1 mps 736 mmHg 98%

    Day after tomorrow, 21 June, Thursday

    Time Temperature Precipitation Wind Pressure Humidity
    00:00 +22°C° 0 mm 1 mps 736 mmHg 99%
    01:00 +21°C° 0 mm 2 mps 735 mmHg 100%
    02:00 +21°C° 0 mm 1 mps 735 mmHg 100%
    03:00 +21°C° 0 mm 1 mps 735 mmHg 100%
    04:00 +20°C° 0 mm 1 mps 734 mmHg 100%
    05:00 +20°C° 0 mm 2 mps 734 mmHg 100%
    06:00 +20°C° 0 mm 2 mps 734 mmHg 100%
    07:00 +20°C° 0 mm 2 mps 734 mmHg 100%
    08:00 +21°C° 0 mm 2 mps 734 mmHg 98%
    09:00 +22°C° 0 mm 3 mps 734 mmHg 96%
    10:00 +25°C° 0 mm 3 mps 734 mmHg 94%
    11:00 +26°C° 0 mm 3 mps 733 mmHg 90%
    12:00 +26°C° 0 mm 3 mps 733 mmHg 91%
    13:00 +27°C° 0 mm 4 mps 732 mmHg 89%
    14:00 +27°C° 0 mm 4 mps 731 mmHg 89%
    15:00 +27°C° 0 mm 4 mps 731 mmHg 86%
    16:00 +27°C° 0.4 mm 3 mps 730 mmHg 90%
    17:00 +27°C° 0.3 mm 3 mps 730 mmHg 87%
    18:00 +26°C° 0 mm 3 mps 729 mmHg 90%
    19:00 +25°C° 0 mm 3 mps 728 mmHg 89%
    20:00 +25°C° 0 mm 3 mps 728 mmHg 91%
    21:00 +24°C° 0 mm 3 mps 728 mmHg 96%
    22:00 +23°C° 0 mm 2 mps 728 mmHg 100%
    23:00 +23°C° 0 mm 2 mps 728 mmHg 100%

    22 June, Friday

    Time Temperature Precipitation Wind Pressure Humidity
    00:00 +23°C° 0 mm 2 mps 727 mmHg 99%
    01:00 +23°C° 0 mm 2 mps 727 mmHg 92%
    02:00 +23°C° 0 mm 2 mps 727 mmHg 84%
    03:00 +23°C° 0 mm 1 mps 727 mmHg 83%
    04:00 +23°C° 0 mm 1 mps 726 mmHg 84%
    05:00 +20°C° 0 mm 0 mps 726 mmHg 87%
    06:00 +21°C° 0 mm 2 mps 727 mmHg 94%
    07:00 +20°C° 0 mm 6 mps 728 mmHg 97%
    08:00 +19°C° 0 mm 5 mps 728 mmHg 98%
    09:00 +19°C° 0 mm 5 mps 728 mmHg 98%
    10:00 +17°C° 0 mm 6 mps 729 mmHg 98%
    11:00 +17°C° 0.3 mm 5 mps 729 mmHg 97%
    12:00 +17°C° 0.2 mm 5 mps 729 mmHg 98%
    13:00 +17°C° 1.1 mm 6 mps 729 mmHg 98%
    14:00 +16°C° 0.1 mm 5 mps 729 mmHg 93%

    23 June, Saturday

    Time Temperature Precipitation Wind Pressure Humidity

    24 June, Sunday

    Time Temperature Precipitation Wind Pressure Humidity
    Show more